Date,TemperatureHighF,TemperatureAvgF,TemperatureLowF,DewpointHighF,DewpointAvgF,DewpointLowF,HumidityHigh,HumidityAvg,HumidityLow,PressureMaxIn,PressureMinIn,WindSpeedMaxMPH,WindSpeedAvgMPH,GustSpeedMaxMPH,PrecipitationSumIn
2013-4-16,72.0,62.2,53.0,72.0,60.9,-99.9,100,99,100,0.00,40.00,6,2,13,0.29
2013-4-17,73.0,64.0,57.0,68.0,-63.2,-99.9,100,22,100,0.00,40.00,5,1,11,0.02
2013-4-18,71.0,64.5,58.0,64.0,-95.4,-99.9,100,3,100,0.00,40.00,8,3,19,0.01
2013-4-19,65.0,58.7,43.0,-99.9,-99.9,-99.9,0,0,100,0.00,40.00,11,3,28,0.54
2013-4-20,55.0,44.8,33.0,-99.9,-99.9,-99.9,0,0,100,0.00,40.00,4,2,10,0.02
2013-4-21,53.0,44.8,37.0,-99.9,-99.9,-99.9,0,0,100,0.00,40.00,7,3,14,0.00
2013-4-22,56.0,44.3,32.0,-99.9,-99.9,-99.9,0,0,100,0.00,40.00,6,3,11,0.00
2013-4-23,67.0,52.9,40.0,-99.9,-99.9,-99.9,0,0,100,0.00,40.00,5,2,15,0.00
2013-4-24,69.0,58.7,47.0,61.0,-94.4,-99.9,100,3,100,0.00,40.00,7,2,21,0.13
2013-4-25,61.0,47.9,34.0,-99.9,-99.9,-99.9,0,0,100,0.00,40.00,3,1,6,0.05
2013-4-26,64.0,53.0,42.0,-99.9,-99.9,-99.9,0,0,100,0.00,40.00,3,1,9,0.00
2013-4-27,60.0,54.4,49.0,59.0,-94.4,-99.9,100,3,100,0.00,40.00,4,1,11,0.05
2013-4-28,53.0,49.7,48.0,-99.9,-99.9,-99.9,0,0,100,0.00,40.00,7,2,16,0.54
2013-4-29,65.0,54.4,48.0,-99.9,-99.9,-99.9,0,0,100,0.00,40.00,2,0,5,0.06
2013-4-30,68.0,58.0,52.0,-99.9,-99.9,-99.9,0,0,100,0.00,40.00,6,2,11,0.00
2013-5-1,63.0,55.5,51.0,-99.9,-99.9,-99.9,0,0,100,0.00,40.00,7,3,14,0.01
2013-5-2,61.0,53.5,47.0,-99.9,-99.9,-99.9,0,0,100,0.00,40.00,7,3,14,0.01
2013-5-3,58.0,51.9,46.0,-99.9,-99.9,-99.9,0,0,100,0.00,40.00,8,4,16,0.00
2013-5-4,58.0,47.6,41.0,-99.9,-99.9,-99.9,0,0,100,0.00,40.00,9,6,19,0.00
2013-5-5,49.0,45.9,41.0,-99.9,-99.9,-99.9,0,0,100,0.00,40.00,10,5,16,0.09
2013-6-10,67.0,64.8,64.0,-99.9,-99.9,-99.9,0,0,100,0.00,40.00,1,0,4,0.49